TimeEST,TemperatureF,Dew PointF,Humidity,Sea Level PressureIn,VisibilityMPH,Wind Direction,Wind SpeedMPH,Gust SpeedMPH,PrecipitationIn,Events,Conditions,WindDirDegrees,DateUTC
12:55 AM,29.7,11.1,46,29.72,10.0,NW,15.0,-,N/A,,Mostly Cloudy,320,2013-02-17 05:55:00
1:55 AM,28.9,10.2,46,29.72,10.0,NNW,16.1,-,N/A,,Overcast,330,2013-02-17 06:55:00
2:55 AM,28.4,9.1,44,29.71,10.0,NW,16.1,-,N/A,,Partly Cloudy,320,2013-02-17 07:55:00
3:55 AM,28.2,8.8,44,29.70,10.0,NW,13.8,-,N/A,,Clear,320,2013-02-17 08:55:00
4:55 AM,28.0,8.6,44,29.70,10.0,NW,16.1,25.3,N/A,,Partly Cloudy,320,2013-02-17 09:55:00
5:55 AM,27.5,4.1,37,29.71,10.0,NW,19.6,25.3,N/A,,Clear,320,2013-02-17 10:55:00
6:55 AM,26.4,5.2,40,29.72,10.0,WNW,13.8,25.3,N/A,,Partly Cloudy,300,2013-02-17 11:55:00
7:55 AM,26.2,5.5,41,29.74,10.0,WNW,13.8,23.0,N/A,,Clear,300,2013-02-17 12:55:00
8:55 AM,28.4,5.5,38,29.74,10.0,WNW,21.9,26.5,N/A,,Clear,300,2013-02-17 13:55:00
9:55 AM,30.6,5.2,34,29.75,10.0,WNW,23.0,29.9,N/A,,Clear,290,2013-02-17 14:55:00
10:55 AM,31.6,5.2,33,29.76,10.0,WNW,19.6,31.1,N/A,,Clear,300,2013-02-17 15:55:00
11:55 AM,32.7,4.8,31,29.76,10.0,NW,26.5,32.2,N/A,,Clear,310,2013-02-17 16:55:00
12:55 PM,32.7,5.5,32,29.76,10.0,WNW,20.7,31.1,N/A,,Scattered Clouds,290,2013-02-17 17:55:00
1:55 PM,31.6,4.6,32,29.78,10.0,WNW,21.9,32.2,N/A,,Scattered Clouds,290,2013-02-17 18:55:00
2:55 PM,30.2,5.0,34,29.79,10.0,NW,24.2,34.5,N/A,,Mostly Cloudy,310,2013-02-17 19:55:00
3:55 PM,30.9,4.1,32,29.80,10.0,NW,27.6,33.4,N/A,,Mostly Cloudy,310,2013-02-17 20:55:00
4:55 PM,28.4,9.0,44,29.83,10.0,West,21.9,34.5,N/A,,Scattered Clouds,280,2013-02-17 21:55:00
4:58 PM,28.4,8.6,43,29.83,10.0,WNW,25.3,34.5,N/A,Snow,Light Snow,290,2013-02-17 21:58:00
5:30 PM,28.4,6.8,40,29.85,10.0,WNW,20.7,33.4,N/A,,Mostly Cloudy,290,2013-02-17 22:30:00
5:55 PM,27.0,7.5,44,29.86,10.0,WNW,18.4,24.2,0.00,,Mostly Cloudy,290,2013-02-17 22:55:00
6:55 PM,27.3,2.8,35,29.89,10.0,WNW,23.0,36.8,N/A,,Overcast,290,2013-02-17 23:55:00
7:55 PM,26.1,1.6,35,29.93,10.0,West,20.7,33.4,N/A,,Mostly Cloudy,280,2013-02-18 00:55:00
8:55 PM,24.4,1.0,36,29.96,10.0,WNW,16.1,32.2,N/A,,Partly Cloudy,290,2013-02-18 01:55:00
9:55 PM,23.4,-0.8,35,30.00,10.0,WNW,25.3,39.1,N/A,,Scattered Clouds,300,2013-02-18 02:55:00
10:55 PM,21.4,-1.1,37,30.03,10.0,WNW,26.5,33.4,N/A,,Clear,300,2013-02-18 03:55:00
11:55 PM,20.7,0.3,41,30.05,10.0,WNW,23.0,31.1,N/A,,Clear,290,2013-02-18 04:55:00